Skagway, AK

5:07 AM AKDT on March 28, 2017 (GMT -0800)
Skagway

Weather History for PAGY - April, 2013

Change the Weather History Date:

Saturday, April 6, 2013

  Actual Average Record
Temperature  
Mean Temperature 31 °F -  
Max Temperature 36 °F 42 °F 59 °F (1966)
Min Temperature 26 °F 28 °F 23 °F (1969)
Degree Days  
Heating Degree Days 34    
Moisture  
Dew Point 20 °F    
Average Humidity 65    
Maximum Humidity 89    
Minimum Humidity 35    
Precipitation  
Precipitation 0.00 in - - ()
Sea Level Pressure  
Sea Level Pressure 29.63 in    
Wind  
Wind Speed 9 mph (NNE)    
Max Wind Speed 22 mph    
Max Gust Speed 32 mph    
Visibility 7 miles    
Events Snow    
Averages and records for this station are not official NWS values.
T = Trace of Precipitation, MM = Missing Value Source: NWS Daily Summary

Daily Weather History Graph

Daily Weather History Graph

Search for Another Location

Airport or City:

Trip Planner

Search our weather history database for the weather conditions in past years. The results will help you decide how hot, cold, wet, or windy it might be!

Date:

Astronomy

Apr. 06, 2013 Rise Set
Actual Time 6:11 AM AKDT 7:57 PM AKDT
Civil Twilight 5:28 AM AKDT 8:40 PM AKDT
Nautical Twilight 4:33 AM AKDT 9:35 PM AKDT
Astronomical Twilight 3:27 AM AKDT 10:43 PM AKDT
Moon 4:49 AM AKDT (4/6) 3:50 PM AKDT (4/6)
Length of Visible Light 15h 12m
Length of Day
13h 46m
Waning Crescent, 14% of the Moon is Illuminated
Apr 6
Waning Crescent
Apr 10
New
Apr 18
First Quarter
Apr 25
Full
May 2
Last Quarter

Hourly Weather History & Observations

Time (AKDT) Temp. Windchill Dew Point Humidity Pressure Visibility Wind Dir Wind Speed Gust Speed Precip Events Conditions
12:53 AM 28.9 °F 23.9 °F 5.0 °F 36% 29.64 in 10.0 mi North 4.6 mph - N/A   Overcast
1:53 AM 30.0 °F 20.0 °F 5.0 °F 35% 29.63 in 10.0 mi NNE 12.7 mph 20.7 mph N/A   Overcast
2:53 AM 28.9 °F 15.8 °F 5.0 °F 36% 29.62 in 10.0 mi NE 20.7 mph 26.5 mph N/A   Overcast
3:53 AM 28.9 °F 18.6 °F 7.0 °F 40% 29.61 in 10.0 mi NNE 12.7 mph 23.0 mph N/A   Overcast
4:53 AM 28.0 °F 16.5 °F 10.0 °F 47% 29.61 in 9.0 mi NNE 15.0 mph 21.9 mph 0.00 in   Overcast
5:53 AM 27.0 °F 17.3 °F 12.9 °F 56% 29.62 in 7.0 mi NNE 10.4 mph 25.3 mph 0.00 in Snow Light Snow
6:53 AM 26.1 °F 14.5 °F 14.0 °F 60% 29.61 in 2.0 mi NE 13.8 mph 27.6 mph 0.00 in Snow Light Snow
7:04 AM 26.6 °F 12.7 °F 12.2 °F 55% 29.61 in 5.0 mi NNE 20.7 mph 26.5 mph 0.00 in Snow Light Snow
7:35 AM 26.6 °F 14.7 °F 15.8 °F 64% 29.61 in 1.8 mi NE 15.0 mph 26.5 mph 0.00 in Snow Light Snow
7:45 AM 26.6 °F 12.4 °F 14.0 °F 59% 29.60 in 2.0 mi NE 21.9 mph 29.9 mph 0.00 in Snow Light Snow
7:53 AM 27.0 °F 14.7 °F 15.1 °F 61% 29.61 in 2.0 mi NE 16.1 mph 29.9 mph 0.00 in Snow Light Snow
8:17 AM 26.6 °F 15.7 °F 15.8 °F 64% 29.61 in 1.8 mi NNE 12.7 mph 32.2 mph 0.00 in Snow Light Snow
8:24 AM 26.6 °F 14.7 °F 15.8 °F 64% 29.61 in 3.0 mi NNE 15.0 mph 25.3 mph 0.00 in Snow Light Snow
8:43 AM 26.6 °F 13.4 °F 15.8 °F 64% 29.61 in 2.5 mi NNE 18.4 mph 26.5 mph 0.00 in Snow Light Snow
8:53 AM 27.0 °F 14.3 °F 15.1 °F 61% 29.61 in 3.0 mi NNE 17.3 mph 27.6 mph 0.00 in Snow Light Snow
9:53 AM 28.9 °F 22.8 °F 18.0 °F 64% 29.61 in 10.0 mi NNE 5.8 mph 17.3 mph 0.00 in   Overcast
10:53 AM 30.9 °F 22.8 °F 17.1 °F 57% 29.60 in 10.0 mi North 9.2 mph 16.1 mph N/A   Overcast
11:53 AM 32.0 °F - 18.0 °F 56% 29.60 in 10.0 mi Calm Calm - N/A   Overcast
12:53 PM 33.1 °F 30.0 °F 21.0 °F 61% 29.60 in 7.0 mi Variable 3.5 mph - 0.00 in Snow Light Snow
1:29 PM 33.8 °F - 23.0 °F 65% 29.60 in 2.5 mi Calm Calm - 0.00 in Snow Light Snow
1:37 PM 33.8 °F 30.8 °F 24.8 °F 70% 29.60 in 5.0 mi Variable 3.5 mph - 0.00 in Snow Light Snow
1:53 PM 33.1 °F 28.7 °F 24.1 °F 70% 29.60 in 9.0 mi Variable 4.6 mph - 0.00 in   Overcast
2:51 PM 33.8 °F - 26.6 °F 75% 29.60 in 2.5 mi Calm Calm - 0.00 in Snow Light Snow
2:53 PM 33.1 °F - 26.1 °F 75% 29.61 in 2.5 mi Calm Calm - 0.00 in Snow Light Snow
3:19 PM 33.8 °F 30.8 °F 26.6 °F 75% 29.60 in 6.0 mi Variable 3.5 mph - 0.00 in Snow Light Snow
3:53 PM 34.0 °F 31.0 °F 27.0 °F 75% 29.60 in 9.0 mi Variable 3.5 mph - 0.00 in   Overcast
4:53 PM 36.0 °F 33.3 °F 27.0 °F 70% 29.60 in 10.0 mi Variable 3.5 mph - 0.00 in   Overcast
5:53 PM 35.1 °F - 28.0 °F 76% 29.61 in 3.0 mi Calm Calm - 0.00 in Snow Light Snow
6:53 PM 35.1 °F - 28.9 °F 78% 29.64 in 8.0 mi Calm Calm - 0.00 in Snow Light Snow
7:53 PM 35.1 °F - 30.0 °F 82% 29.66 in 10.0 mi Calm Calm - N/A   Overcast
8:46 PM 33.8 °F - 30.2 °F 87% 29.69 in 10.0 mi Calm Calm - N/A   Overcast
8:53 PM 34.0 °F - 30.0 °F 85% 29.69 in 10.0 mi Calm Calm - N/A   Overcast
9:53 PM 34.0 °F - 28.9 °F 82% 29.71 in 10.0 mi Calm Calm - N/A   Overcast
10:53 PM 33.1 °F 30.0 °F 30.0 °F 89% 29.72 in 10.0 mi NE 3.5 mph - N/A   Overcast
11:53 PM 33.1 °F - 30.0 °F 89% 29.73 in 10.0 mi Calm Calm - 0.00 in   Overcast